George, South Africa

3:08 AM SAST on November 25, 2017 (GMT +0200)
George

Weather History for FAGG - July, 2013

Change the Weather History Date:

Tuesday, July 16, 2013

  Actual Average Record
Temperature  
Mean Temperature 58 °F -  
Max Temperature 65 °F 64 °F 82 °F (2005)
Min Temperature 51 °F 45 °F 38 °F (2015)
Degree Days  
Heating Degree Days 6    
Growing Degree Days 8 (Base 50)    
Moisture  
Dew Point 48 °F    
Average Humidity 73    
Maximum Humidity 88    
Minimum Humidity 47    
Precipitation  
Precipitation 0.00 in - - ()
Sea Level Pressure  
Sea Level Pressure 30.13 in    
Wind  
Wind Speed 5 mph ()    
Max Wind Speed 18 mph    
Max Gust Speed -    
Visibility 8.0 miles    
Events      
Averages and records for this station are not official NWS values.
T = Trace of Precipitation, MM = Missing Value Source: Averaged Metar Reports

Daily Weather History Graph

Daily Weather History Graph

Search for Another Location

Airport or City:

Trip Planner

Search our weather history database for the weather conditions in past years. The results will help you decide how hot, cold, wet, or windy it might be!

Date:

Astronomy

Jul. 16, 2013 Rise Set
Actual Time 7:33 AM SAST 5:40 PM SAST
Civil Twilight 7:05 AM SAST 6:07 PM SAST
Nautical Twilight 6:35 AM SAST 6:38 PM SAST
Astronomical Twilight 6:05 AM SAST 7:08 PM SAST
Moon 12:01 PM SAST (7/16) 12:37 AM SAST (7/16)
Length of Visible Light 11h 01m
Length of Day
10h 07m
First Quarter, 53% of the Moon is Illuminated
Jul 16
First Quarter
Jul 22
Full
Jul 29
Last Quarter
Aug 6
New
Aug 14
First Quarter

Hourly Weather History & Observations

Time (SAST) Temp. Dew Point Humidity Pressure Visibility Wind Dir Wind Speed Gust Speed Precip Events Conditions
12:00 AM 55.4 °F 50.0 °F 82% 30.06 in 6.2 mi WNW 5.8 mph - N/A   Mostly Cloudy
1:00 AM 55.4 °F 48.2 °F 77% 30.06 in 6.2 mi WNW 4.6 mph - N/A   Overcast
2:00 AM 56 °F 49 °F 69% 30.08 in 12 mi 3.5 mph - -  
2:00 AM 55.4 °F 48.2 °F 77% 30.06 in 6.2 mi Variable 2.3 mph - N/A   Mostly Cloudy
3:00 AM 53.6 °F 48.2 °F 82% 30.06 in 6.2 mi NNE 3.5 mph - N/A   Overcast
5:00 AM 53 °F 48 °F 78% 30.09 in 12 mi NW 8.9 mph - -   Mostly Cloudy
5:00 AM 53.6 °F 48.2 °F 82% 30.06 in 6.2 mi WNW 5.8 mph - N/A   Mostly Cloudy
6:00 AM 53.6 °F 48.2 °F 82% 30.09 in 6.2 mi SSW 5.8 mph - N/A   Mostly Cloudy
7:00 AM 53.6 °F 46.4 °F 77% 30.09 in 6.2 mi West 5.8 mph - N/A   Mostly Cloudy
8:00 AM 53 °F 46 °F 71% 30.13 in 12 mi NW 6.7 mph - -   Mostly Cloudy
8:00 AM 53.6 °F 46.4 °F 77% 30.12 in 6.2 mi Variable 2.3 mph - N/A   Mostly Cloudy
9:00 AM 55.4 °F 46.4 °F 72% 30.15 in 6.2 mi West 5.8 mph - N/A   Mostly Cloudy
10:00 AM 59.0 °F 46.4 °F 63% 30.15 in 6.2 mi Variable 2.3 mph - N/A   Mostly Cloudy
11:00 AM 61 °F 46 °F 47% 30.17 in 19 mi WSW 8.9 mph - -   Partly Cloudy
11:00 AM 60.8 °F 44.6 °F 55% 30.15 in 6.2 mi WSW 4.6 mph - N/A   Scattered Clouds
12:00 PM 64.4 °F 46.4 °F 52% 30.15 in 6.2 mi SSW 3.5 mph - N/A   Partly Cloudy
1:00 PM 64.4 °F 46.4 °F 52% 30.12 in 6.2 mi South 6.9 mph - N/A   Partly Cloudy
2:00 PM 62 °F 49 °F 53% 30.12 in 12 mi SE 17.9 mph - -   Partly Cloudy
2:00 PM 60.8 °F 50.0 °F 68% 30.12 in 6.2 mi SE 9.2 mph - N/A   Scattered Clouds
3:00 PM 62.6 °F 50.0 °F 63% 30.12 in 6.2 mi SSE 8.1 mph - N/A   Partly Cloudy
4:00 PM 60.8 °F 50.0 °F 68% 30.12 in 6.2 mi SE 8.1 mph - N/A   Partly Cloudy
5:00 PM 58 °F 51 °F 69% 30.15 in 12 mi ESE 13.4 mph - -   Partly Cloudy
5:00 PM 59.0 °F 51.8 °F 77% 30.15 in 6.2 mi ESE 6.9 mph - N/A   Scattered Clouds
6:00 PM 57.2 °F 51.8 °F 82% 30.15 in 6.2 mi ENE 5.8 mph - N/A   Mostly Cloudy
7:00 PM 55.4 °F 50.0 °F 82% 30.18 in 6.2 mi ENE 4.6 mph - N/A   Mostly Cloudy
8:00 PM 54 °F 50 °F 82% 30.20 in 12 mi East 3.5 mph - -   Partly Cloudy
8:00 PM 55.4 °F 50.0 °F 82% 30.18 in 6.2 mi East 3.5 mph - N/A   Scattered Clouds
9:00 PM 53.6 °F 50.0 °F 88% 30.18 in - North 2.3 mph - N/A   Clear
10:00 PM 53.6 °F 50.0 °F 88% 30.21 in - East 8.1 mph - N/A   Clear
11:00 PM 51.8 °F 48.2 °F 88% 30.18 in - ENE 6.9 mph - N/A   Clear